EW3804 Weather Reports


Display with metric or nautical units.
time (UTC)temp
F
wind
direction
speed
MPH
gust
MPH
rain 1hr
in
rain 24hr
in
rain mn
in
humidity
%
barometer
mb
20260510031548 76 143 0.0 1.0 0.00 0.00 0.00 80 1002.0
20260510030045 77 143 0.0 2.0 0.00 0.00 0.00 78 1001.8
20260510024545 77 143 0.0 2.0 0.00 0.00 0.00 76 1001.6
20260510023043 78 143 0.0 3.0 0.00 0.00 0.00 75 1001.5
20260510021635 79 143 1.0 3.0 0.00 0.00 0.00 72 1001.3
20260510020043 80 143 0.0 3.0 0.00 0.00 0.00 70 1001.2
20260510014553 81 144 0.0 2.0 0.00 0.00 0.00 66 1000.8
20260510013048 82 144 0.0 3.0 0.00 0.00 0.00 63 1000.6
20260510011541 84 144 1.0 3.0 0.00 0.00 0.00 58 1000.4
20260510010049 86 145 0.0 2.0 0.00 0.00 0.00 55 1000.3
20260510004541 88 145 0.0 2.0 0.00 0.00 0.00 53 1000.2
20260510003039 89 145 2.0 4.0 0.00 0.00 0.00 51 1000.1
20260510001538 90 139 1.0 3.0 0.00 0.00 0.00 49 1000.1
20260510000038 91 139 1.0 3.0 0.00 0.00 0.00 45 1000.0
20260509234538 91 131 2.0 3.0 0.00 0.00 0.00 43 999.9
20260509233036 92 169 2.0 5.0 0.00 0.00 0.00 44 1000.0
20260509231537 92 165 3.0 5.0 0.00 0.00 0.00 43 999.9
20260509230040 94 306 0.0 3.0 0.00 0.00 0.00 40 999.9
20260509224533 92 143 1.0 8.0 0.00 0.00 0.00 41 999.9
20260509223037 93 274 2.0 6.0 0.00 0.00 0.00 38 999.9
20260509221531 92 140 1.0 3.0 0.00 0.00 0.00 40 999.9
20260509220031 92 208 1.0 6.0 0.00 0.00 0.00 42 1000.0
20260509214529 93 297 3.0 5.0 0.00 0.00 0.00 43 1000.1
20260509213030 93 37 1.0 4.0 0.00 0.00 0.00 41 1000.2
20260509211524 91 141 2.0 7.0 0.00 0.00 0.00 43 1000.4
20260509210023 91 293 0.0 6.0 0.00 0.00 0.00 44 1000.5
20260509204522 91 287 2.0 5.0 0.00 0.00 0.00 43 1000.8
20260509203025 91 257 4.0 7.0 0.00 0.00 0.00 46 1001.1
20260509201519 91 250 2.0 4.0 0.00 0.00 0.00 46 1001.3
20260509200016 90 236 0.0 7.0 0.00 0.00 0.00 48 1001.4
20260509194520 90 288 3.0 7.0 0.00 0.00 0.00 49 1001.5
20260509193020 89 274 3.0 6.0 0.00 0.00 0.00 50 1001.8
20260509191511 88 274 2.0 9.0 0.00 0.00 0.00 49 1002.1
20260509190009 88 255 4.0 9.0 0.00 0.00 0.00 48 1002.2
20260509184507 89 310 0.0 7.0 0.00 0.00 0.00 47 1002.3
20260509183012 88 302 2.0 9.0 0.00 0.00 0.00 51 1002.4
20260509181505 87 305 0.0 7.0 0.00 0.00 0.00 50 1002.6
20260509180005 87 297 3.0 7.0 0.00 0.00 0.00 50 1002.9
20260509174504 87 307 2.0 7.0 0.00 0.00 0.00 50 1003.0
20260509173108 86 301 3.0 6.0 0.00 0.00 0.00 52 1003.2
20260509171558 86 48 0.0 5.0 0.00 0.00 0.00 54 1003.3
20260509170057 85 338 1.0 4.0 0.00 0.00 0.00 59 1003.4
20260509164553 84 313 0.0 3.0 0.00 0.00 0.00 58 1003.4
20260509163054 83 310 0.0 3.0 0.00 0.00 0.00 60 1003.5
20260509161557 82 314 0.0 5.0 0.00 0.00 0.00 61 1003.6
20260509160046 81 316 0.0 7.0 0.00 0.00 0.00 62 1003.6
20260509154548 80 295 0.0 5.0 0.00 0.00 0.00 67 1003.7
20260509153053 79 5 0.0 2.0 0.00 0.00 0.00 71 1003.7
20260509151537 79 24 0.0 1.0 0.00 0.00 0.00 77 1003.7
20260509150033 78 27 0.0 1.0 0.00 0.00 0.00 79 1003.6
20260509144532 77 24 0.0 0.0 0.00 0.00 0.00 80 1003.4
20260509143029 76 341 0.0 1.0 0.00 0.00 0.00 82 1003.3
20260509141535 76 326 0.0 0.0 0.00 0.00 0.00 84 1003.4
20260509140023 75 345 0.0 5.0 0.00 0.00 0.00 86 1003.3
20260509134522 74 307 0.0 0.0 0.00 0.00 0.00 88 1003.5
20260509133021 74 329 0.0 0.0 0.00 0.00 0.00 90 1003.3
20260509131515 72 283 0.0 0.0 0.00 0.00 0.00 91 1002.6
20260509130012 72 314 0.0 0.0 0.00 0.00 0.00 92 1002.8
20260509124508 70 316 0.0 0.0 0.00 0.00 0.00 94 1003.0
20260509123006 70 233 0.0 0.0 0.00 0.00 0.00 94 1001.4
20260509121504 70 176 0.0 0.0 0.00 0.00 0.00 95 1000.6
20260509120100 0 0.0 0.0 0.00 0.00 0.00 1000.5
20260509114555 0 0.0 0.0 0.00 0.00 0.00 1000.6
20260509113051 0 0.0 0.0 0.00 0.00 0.00 1001.7
20260509111546 0 0.0 0.0 0.00 0.00 0.00 1002.3
20260509110042 0 0.0 0.0 0.00 0.00 0.00 1001.9
20260509104538 0 0.0 0.0 0.00 0.00 0.00 1002.5
20260509103038 0 0.0 0.0 0.00 0.00 0.00 1002.9
20260509101528 0 0.0 0.0 0.00 0.00 0.00 1003.1
20260509100028 67 118 0.0 0.0 0.00 0.00 0.00 95 1003.4
20260509094526 68 120 0.0 0.0 0.00 0.00 0.00 94 1003.5
20260509093025 69 120 0.0 0.0 0.00 0.00 0.00 94 1003.4
20260509091522 69 120 0.0 0.0 0.00 0.00 0.00 94 1003.6
20260509090035 68 120 0.0 0.0 0.00 0.00 0.00 94 1003.5
20260509084522 68 120 0.0 1.0 0.00 0.00 0.00 95 1003.5
20260509083024 68 120 0.0 1.0 0.00 0.00 0.00 94 1004.0
20260509081521 67 121 0.0 0.0 0.00 0.00 0.00 94 1004.1
20260509080018 66 121 0.0 0.0 0.00 0.00 0.00 94 1003.9
20260509074517 67 121 0.0 0.0 0.00 0.00 0.00 94 1003.4
20260509073031 67 121 0.0 0.0 0.00 0.00 0.00 94 1003.3
20260509071515 67 121 0.0 1.0 0.00 0.00 0.00 93 1003.2
20260509070016 68 121 0.0 0.0 0.00 0.00 0.00 94 1003.8
20260509064514 67 121 0.0 1.0 0.00 0.00 0.00 94 1003.7
20260509063021 67 120 0.0 0.0 0.00 0.00 0.00 94 1003.5
20260509061507 66 121 0.0 0.0 0.00 0.00 0.00 94 1003.1
20260509060007 66 121 0.0 0.0 0.00 0.00 0.00 94 1002.9
20260509054505 66 121 0.0 0.0 0.00 0.00 0.00 94 1002.6
20260509053002 67 121 0.0 1.0 0.00 0.00 0.00 94 1002.8
20260509051611 67 121 0.0 1.0 0.00 0.00 0.00 94 1003.0
20260509044604 68 120 0.0 1.0 0.00 0.00 0.00 93 1003.1
20260509043059 69 121 0.0 0.0 0.00 0.00 0.00 93 1003.1
20260509041556 69 121 0.0 0.0 0.00 0.00 0.00 93 1003.1
20260509040107 69 121 0.0 0.0 0.00 0.00 0.00 93 1002.9
20260509034554 69 120 0.0 0.0 0.00 0.00 0.00 92 1002.5
20260509033114 70 121 0.0 1.0 0.00 0.00 0.00 92 1002.3